Terminal Aerodrome Forecast
Issued by NWS Omaha/Valley, NE

Home | Current Version | Previous Version | Text Only | Print | Product List | Glossary Off
Versions: 1 2 3 4 5 6 7 8 9 10 11 12 13 14 15 16 17 18 19 20 21 22 23 24 25 26 27 28 29 30 31 32 33 34 35 36 37 38 39 40 41

000
FTUS43 KOAX 232329
TAFOFK
TAF
KOFK 232329Z 2400/2424 16013G21KT P6SM BKN120
     FM240800 16013G21KT P6SM OVC025
     FM241300 15012KT P6SM OVC015
      TEMPO 2415/2419 3SM -SHRA BR OVC008=

USA.gov is the U.S. government's official web portal to all federal, state and local government web resources and services.